FW6037 Weather Reports


Display with metric or nautical units.
time (UTC)temp
F
wind
direction
speed
MPH
gust
MPH
rain 1hr
in
rain 24hr
in
rain mn
in
humidity
%
barometer
mb
20260506094545 60 276 7.0 16.0 0.00 0.00 0.00 76 1013.5
20260506093102 59 210 3.0 17.0 0.00 0.00 0.00 77 1013.5
20260506091545 55 303 4.0 14.0 0.00 0.00 0.00 84 1013.4
20260506090040 50 149 5.0 16.0 0.00 0.00 0.00 83 1013.2
20260506084536 55 132 2.0 10.0 0.00 0.00 0.00 80 1013.1
20260506083037 50 241 2.0 18.0 0.00 0.00 0.00 88 1012.8
20260506081532 48 156 4.0 8.0 0.00 0.00 0.00 88 1012.7
20260506073025 49 134 2.0 9.0 0.00 0.00 0.00 84 1012.9
20260506071523 51 109 3.0 9.0 0.00 0.00 0.00 79 1012.8
20260506061512 59 243 3.0 11.0 0.00 0.00 0.00 72 1012.8
20260506044616 60 227 8.0 18.0 0.00 0.00 0.00 68 1012.3
20260506043058 60 233 6.0 17.0 0.00 0.00 0.00 69 1012.3
20260506041607 60 265 8.0 20.0 0.00 0.00 0.00 68 1012.0
20260506040055 61 274 8.0 19.0 0.00 0.00 0.00 67 1012.1
20260506034548 61 237 5.0 17.0 0.00 0.00 0.00 66 1011.8
20260506033050 62 231 7.0 16.0 0.00 0.00 0.00 65 1011.8
20260506031547 62 237 8.0 20.0 0.00 0.00 0.00 64 1011.7
20260506030041 62 247 8.0 26.0 0.00 0.00 0.00 64 1011.7
20260506024541 62 260 9.0 20.0 0.00 0.00 0.00 63 1011.7
20260506023050 62 260 9.0 20.0 0.00 0.00 0.00 63 1011.8
20260506021538 62 252 11.0 26.0 0.00 0.00 0.00 62 1011.7
20260506020108 62 250 9.0 20.0 0.00 0.00 0.00 62 1011.5
20260506014537 63 227 14.0 27.0 0.00 0.00 0.00 61 1011.6
20260506013035 63 245 8.0 20.0 0.00 0.00 0.00 59 1011.5
20260506011536 63 266 10.0 23.0 0.00 0.00 0.00 58 1011.3
20260506010034 63 245 6.0 17.0 0.00 0.00 0.00 57 1011.2
20260506004539 63 207 6.0 18.0 0.00 0.00 0.00 56 1011.2
20260506003031 62 256 4.0 13.0 0.00 0.00 0.00 56 1011.0
20260506001530 61 252 5.0 16.0 0.00 0.00 0.00 57 1011.0
20260506000043 58 179 3.0 10.0 0.00 0.00 0.00 63 1011.0
20260505234527 52 116 0.0 6.0 0.00 0.00 0.00 66 1010.8
20260505233027 61 249 2.0 7.0 0.00 0.00 0.00 58 1010.6
20260505231626 61 239 1.0 5.0 0.00 0.00 0.00 58 1010.4
20260505230039 60 147 1.0 5.0 0.00 0.00 0.00 59 1010.3
20260505224525 60 148 3.0 5.0 0.00 0.00 0.00 58 1010.2
20260505223024 61 153 1.0 5.0 0.00 0.00 0.00 55 1010.3
20260505221524 67 112 4.0 7.0 0.00 0.00 0.00 46 1010.4
20260505220023 70 266 1.0 18.0 0.00 0.00 0.00 41 1010.2
20260505214524 70 258 4.0 19.0 0.00 0.00 0.00 42 1010.3
20260505213026 71 234 3.0 13.0 0.00 0.00 0.00 46 1009.9
20260505211529 69 170 3.0 12.0 0.00 0.00 0.00 50 1010.1
20260505210020 67 162 2.0 11.0 0.00 0.00 0.00 51 1010.0
20260505204519 68 82 3.0 8.0 0.00 0.00 0.00 50 1009.9
20260505203019 70 101 3.0 8.0 0.00 0.00 0.00 48 1009.8
20260505201517 71 107 3.0 12.0 0.00 0.00 0.00 46 1009.8
20260505200017 77 202 3.0 9.0 0.00 0.00 0.00 38 1009.7
20260505194513 76 200 8.0 17.0 0.00 0.00 0.00 33 1009.7
20260505193011 76 258 9.0 24.0 0.00 0.00 0.00 34 1009.8
20260505191513 76 218 10.0 25.0 0.00 0.00 0.00 36 1009.7
20260505190014 76 233 7.0 21.0 0.00 0.00 0.00 38 1009.6
20260505184507 76 260 11.0 23.0 0.00 0.00 0.00 38 1009.7
20260505183011 76 232 10.0 25.0 0.00 0.00 0.00 37 1009.7
20260505181505 75 269 9.0 33.0 0.00 0.00 0.00 38 1009.5
20260505180004 75 232 12.0 24.0 0.00 0.00 0.00 38 1009.7
20260505174502 74 257 9.0 25.0 0.00 0.00 0.00 40 1009.7
20260505173059 74 238 9.0 23.0 0.00 0.00 0.00 42 1009.7
20260505171602 66 232 7.0 13.0 0.00 0.00 0.00 53 1009.8
20260505170054 61 117 3.0 10.0 0.00 0.00 0.00 62 1010.3
20260505164554 60 116 5.0 13.0 0.00 0.06 0.00 63 1010.3
20260505163053 61 113 7.0 13.0 0.00 0.06 0.00 60 1010.5
20260505161553 62 106 4.0 15.0 0.00 0.06 0.00 60 1010.2
20260505153053 63 230 5.0 15.0 0.00 0.18 0.00 59 1010.4
20260505151551 66 78 4.0 17.0 0.00 0.18 0.00 54 1010.4
20260505124525 59 289 9.0 16.0 0.00 0.34 0.00 53 1010.6
20260505123030 58 277 5.0 16.0 0.00 0.34 0.00 54 1010.2
20260505121522 58 283 8.0 17.0 0.00 0.34 0.00 56 1010.1
20260505120014 56 257 4.0 12.0 0.00 0.34 0.00 64 1009.9
20260505114512 54 192 2.0 8.0 0.00 0.37 0.00 69 1009.9
20260505113012 53 173 3.0 9.0 0.00 0.37 0.00 69 1009.8
20260505111504 52 173 2.0 12.0 0.00 0.37 0.00 71 1009.7
20260505110118 51 245 4.0 10.0 0.00 0.37 0.00 74 1009.5
20260505101549 48 163 1.0 8.0 0.00 0.40 0.00 81 1009.3
20260505100047 46 216 3.0 9.0 0.00 0.40 0.00 85 1009.0